Year,Month,Day,Hour,Minute,Value (Times are PST for temperature in C)
2013,12,05,00,00,-6.20
2013,12,05,00,01,-6.20
2013,12,05,00,02,-6.20
2013,12,05,00,03,-6.20
2013,12,05,00,04,-6.20
2013,12,05,00,05,-6.30
2013,12,05,00,06,-6.30
2013,12,05,00,07,-6.30
2013,12,05,00,08,-6.30
2013,12,05,00,09,-6.30
2013,12,05,00,10,-6.30
2013,12,05,00,11,-6.30
2013,12,05,00,12,-6.30
2013,12,05,00,13,-6.30
2013,12,05,00,14,-6.30
2013,12,05,00,15,-6.30
2013,12,05,00,16,-6.30
2013,12,05,00,17,-6.30
2013,12,05,00,18,-6.30
2013,12,05,00,19,-6.30
2013,12,05,00,20,-6.30
2013,12,05,00,21,-6.30
2013,12,05,00,22,-6.30
2013,12,05,00,23,-6.30
2013,12,05,00,24,-6.30
2013,12,05,00,25,-6.30
2013,12,05,00,26,-6.40
2013,12,05,00,27,-6.40
2013,12,05,00,28,-6.40
2013,12,05,00,29,-6.40
2013,12,05,00,30,-6.40
2013,12,05,00,31,-6.40
2013,12,05,00,32,-6.40
2013,12,05,00,33,-6.40
2013,12,05,00,34,-6.40
2013,12,05,00,35,-6.40
2013,12,05,00,36,-6.30
2013,12,05,00,37,-6.30
2013,12,05,00,38,-6.30
2013,12,05,00,39,-6.30
2013,12,05,00,40,-6.30
2013,12,05,00,41,-6.30
2013,12,05,00,42,-6.30
2013,12,05,00,43,-6.30
2013,12,05,00,44,-6.40
2013,12,05,00,45,-6.40
2013,12,05,00,46,-6.40
2013,12,05,00,47,-6.40
2013,12,05,00,48,-6.40
2013,12,05,00,49,-6.40
2013,12,05,00,50,-6.40
2013,12,05,00,51,-6.40
2013,12,05,00,52,-6.40
2013,12,05,00,53,-6.40
2013,12,05,00,54,-6.40
2013,12,05,00,55,-6.40
2013,12,05,00,56,-6.40
2013,12,05,00,57,-6.50
2013,12,05,00,58,-6.50
2013,12,05,00,59,-6.50
2013,12,05,01,00,-6.50
2013,12,05,01,01,-6.50
2013,12,05,01,02,-6.50
2013,12,05,01,03,-6.60
2013,12,05,01,04,-6.60
2013,12,05,01,05,-6.60
2013,12,05,01,06,-6.60
2013,12,05,01,07,-6.60
2013,12,05,01,08,-6.60
2013,12,05,01,09,-6.60
2013,12,05,01,10,-6.60
2013,12,05,01,11,-6.60
2013,12,05,01,12,-6.70
2013,12,05,01,13,-6.70
2013,12,05,01,14,-6.70
2013,12,05,01,15,-6.60
2013,12,05,01,16,-6.60
2013,12,05,01,17,-6.60
2013,12,05,01,18,-6.60
2013,12,05,01,19,-6.50
2013,12,05,01,20,-6.50
2013,12,05,01,21,-6.50
2013,12,05,01,22,-6.40
2013,12,05,01,23,-6.40
2013,12,05,01,24,-6.40
2013,12,05,01,25,-6.40
2013,12,05,01,26,-6.40
2013,12,05,01,27,-6.40
2013,12,05,01,28,-6.40
2013,12,05,01,29,-6.40
2013,12,05,01,30,-6.40
2013,12,05,01,31,-6.40
2013,12,05,01,32,-6.40
2013,12,05,01,33,-6.50
2013,12,05,01,34,-6.40
2013,12,05,01,35,-6.40
2013,12,05,01,36,-6.40
2013,12,05,01,37,-6.40
2013,12,05,01,38,-6.40
2013,12,05,01,39,-6.40
2013,12,05,01,40,-6.50
2013,12,05,01,41,-6.40
2013,12,05,01,42,-6.40
2013,12,05,01,43,-6.40
2013,12,05,01,44,-6.50
2013,12,05,01,45,-6.50
2013,12,05,01,46,-6.50
2013,12,05,01,47,-6.50
2013,12,05,01,48,-6.50
2013,12,05,01,49,-6.40
2013,12,05,01,50,-6.50
2013,12,05,01,51,-6.50
2013,12,05,01,52,-6.40
2013,12,05,01,53,-6.40
2013,12,05,01,54,-6.40
2013,12,05,01,55,-6.40
2013,12,05,01,56,-6.40
2013,12,05,01,57,-6.40
2013,12,05,01,58,-6.40
2013,12,05,01,59,-6.40
2013,12,05,02,00,-6.40
2013,12,05,02,01,-6.40
2013,12,05,02,02,-6.30
2013,12,05,02,03,-6.30
2013,12,05,02,04,-6.30
2013,12,05,02,05,-6.30
2013,12,05,02,06,-6.30
2013,12,05,02,07,-6.30
2013,12,05,02,08,-6.30
2013,12,05,02,09,-6.30
2013,12,05,02,10,-6.40
2013,12,05,02,11,-6.40
2013,12,05,02,12,-6.40
2013,12,05,02,13,-6.40
2013,12,05,02,14,-6.40
2013,12,05,02,15,-6.40
2013,12,05,02,16,-6.40
2013,12,05,02,17,-6.40
2013,12,05,02,18,-6.30
2013,12,05,02,19,-6.30
2013,12,05,02,20,-6.30
2013,12,05,02,21,-6.30
2013,12,05,02,22,-6.30
2013,12,05,02,23,-6.30
2013,12,05,02,24,-6.30
2013,12,05,02,25,-6.30
2013,12,05,02,26,-6.30
2013,12,05,02,27,-6.30
2013,12,05,02,28,-6.30
2013,12,05,02,29,-6.30
2013,12,05,02,30,-6.30
2013,12,05,02,31,-6.30
2013,12,05,02,32,-6.30
2013,12,05,02,33,-6.30
2013,12,05,02,34,-6.30
2013,12,05,02,35,-6.30
2013,12,05,02,36,-6.30
2013,12,05,02,37,-6.30
2013,12,05,02,38,-6.30
2013,12,05,02,39,-6.30
2013,12,05,02,40,-6.30
2013,12,05,02,41,-6.30
2013,12,05,02,42,-6.30
2013,12,05,02,43,-6.30
2013,12,05,02,44,-6.40
2013,12,05,02,45,-6.40
2013,12,05,02,46,-6.40
2013,12,05,02,47,-6.40
2013,12,05,02,48,-6.40
2013,12,05,02,49,-6.40
2013,12,05,02,50,-6.40
2013,12,05,02,51,-6.40
2013,12,05,02,52,-6.40
2013,12,05,02,53,-6.40
2013,12,05,02,54,-6.40
2013,12,05,02,55,-6.40
2013,12,05,02,56,-6.40
2013,12,05,02,57,-6.40
2013,12,05,02,58,-6.40
2013,12,05,02,59,-6.40
2013,12,05,03,00,-6.40
2013,12,05,03,01,-6.40
2013,12,05,03,02,-6.40
2013,12,05,03,03,-6.40
2013,12,05,03,04,-6.40
2013,12,05,03,05,-6.40
2013,12,05,03,06,-6.40
2013,12,05,03,07,-6.40
2013,12,05,03,08,-6.50
2013,12,05,03,09,-6.50
2013,12,05,03,10,-6.50
2013,12,05,03,11,-6.50
2013,12,05,03,12,-6.60
2013,12,05,03,13,-6.60
2013,12,05,03,14,-6.60
2013,12,05,03,15,-6.60
2013,12,05,03,16,-6.60
2013,12,05,03,17,-6.60
2013,12,05,03,18,-6.60
2013,12,05,03,19,-6.60
2013,12,05,03,20,-6.60
2013,12,05,03,21,-6.60
2013,12,05,03,22,-6.60
2013,12,05,03,23,-6.60
2013,12,05,03,24,-6.60
2013,12,05,03,25,-6.60
2013,12,05,03,26,-6.60
2013,12,05,03,27,-6.50
2013,12,05,03,28,-6.50
2013,12,05,03,29,-6.50
2013,12,05,03,30,-6.40
2013,12,05,03,31,-6.40
2013,12,05,03,32,-6.40
2013,12,05,03,33,-6.40
2013,12,05,03,34,-6.40
2013,12,05,03,35,-6.40
2013,12,05,03,36,-6.40
2013,12,05,03,37,-6.40
2013,12,05,03,38,-6.40
2013,12,05,03,39,-6.30
2013,12,05,03,40,-6.30
2013,12,05,03,41,-6.30
2013,12,05,03,42,-6.30
2013,12,05,03,43,-6.30
2013,12,05,03,44,-6.30
2013,12,05,03,45,-6.30
2013,12,05,03,46,-6.30
2013,12,05,03,47,-6.30
2013,12,05,03,48,-6.30
2013,12,05,03,49,-6.30
2013,12,05,03,50,-6.30
2013,12,05,03,51,-6.20
2013,12,05,03,52,-6.20
2013,12,05,03,53,-6.20
2013,12,05,03,54,-6.20
2013,12,05,03,55,-6.20
2013,12,05,03,56,-6.20
2013,12,05,03,57,-6.20
2013,12,05,03,58,-6.20
2013,12,05,03,59,-6.20
2013,12,05,04,00,-6.10
2013,12,05,04,01,-6.10
2013,12,05,04,02,-6.10
2013,12,05,04,03,-6.00
2013,12,05,04,04,-6.00
2013,12,05,04,05,-6.00
2013,12,05,04,06,-5.90
2013,12,05,04,07,-5.90
2013,12,05,04,08,-5.90
2013,12,05,04,09,-5.90
2013,12,05,04,10,-5.90
2013,12,05,04,11,-5.90
2013,12,05,04,12,-5.90
2013,12,05,04,13,-5.90
2013,12,05,04,14,-5.90
2013,12,05,04,15,-5.80
2013,12,05,04,16,-5.80
2013,12,05,04,17,-5.80
2013,12,05,04,18,-5.80
2013,12,05,04,19,-5.80
2013,12,05,04,20,-5.80
2013,12,05,04,21,-5.80
2013,12,05,04,22,-5.70
2013,12,05,04,23,-5.70
2013,12,05,04,24,-5.70
2013,12,05,04,25,-5.70
2013,12,05,04,26,-5.70
2013,12,05,04,27,-5.70
2013,12,05,04,28,-5.70
2013,12,05,04,29,-5.70
2013,12,05,04,30,-5.70
2013,12,05,04,31,-5.60
2013,12,05,04,32,-5.60
2013,12,05,04,33,-5.60
2013,12,05,04,34,-5.60
2013,12,05,04,35,-5.60
2013,12,05,04,36,-5.50
2013,12,05,04,37,-5.50
2013,12,05,04,38,-5.50
2013,12,05,04,39,-5.50
2013,12,05,04,40,-5.50
2013,12,05,04,41,-5.50
2013,12,05,04,42,-5.40
2013,12,05,04,43,-5.40
2013,12,05,04,44,-5.40
2013,12,05,04,45,-5.40
2013,12,05,04,46,-5.40
2013,12,05,04,47,-5.40
2013,12,05,04,48,-5.40
2013,12,05,04,49,-5.40
2013,12,05,04,50,-5.30
2013,12,05,04,51,-5.30
2013,12,05,04,52,-5.30
2013,12,05,04,53,-5.30
2013,12,05,04,54,-5.30
2013,12,05,04,55,-5.30
2013,12,05,04,56,-5.30
2013,12,05,04,57,-5.30
2013,12,05,04,58,-5.30
2013,12,05,04,59,-5.30
2013,12,05,05,00,-5.30
2013,12,05,05,01,-5.30
2013,12,05,05,02,-5.30
2013,12,05,05,03,-5.30
2013,12,05,05,04,-5.20
2013,12,05,05,05,-5.20
2013,12,05,05,06,-5.20
2013,12,05,05,07,-5.20
2013,12,05,05,08,-5.20
2013,12,05,05,09,-5.20
2013,12,05,05,10,-5.20
2013,12,05,05,11,-5.20
2013,12,05,05,12,-5.10
2013,12,05,05,13,-5.10
2013,12,05,05,14,-5.10
2013,12,05,05,15,-5.10
2013,12,05,05,16,-5.10
2013,12,05,05,17,-5.00
2013,12,05,05,18,-5.00
2013,12,05,05,19,-5.00
2013,12,05,05,20,-5.00
2013,12,05,05,21,-4.90
2013,12,05,05,22,-4.90
2013,12,05,05,23,-4.90
2013,12,05,05,24,-4.90
2013,12,05,05,25,-4.90
2013,12,05,05,26,-4.90
2013,12,05,05,27,-4.90
2013,12,05,05,28,-4.80
2013,12,05,05,29,-4.80
2013,12,05,05,30,-4.80
2013,12,05,05,31,-4.80
2013,12,05,05,32,-4.80
2013,12,05,05,33,-4.80
2013,12,05,05,34,-4.80
2013,12,05,05,35,-4.80
2013,12,05,05,36,-4.80
2013,12,05,05,37,-4.70
2013,12,05,05,38,-4.70
2013,12,05,05,39,-4.70
2013,12,05,05,40,-4.70
2013,12,05,05,41,-4.70
2013,12,05,05,42,-4.70
2013,12,05,05,43,-4.70
2013,12,05,05,44,-4.70
2013,12,05,05,45,-4.70
2013,12,05,05,46,-4.60
2013,12,05,05,47,-4.60
2013,12,05,05,48,-4.60
2013,12,05,05,49,-4.60
2013,12,05,05,50,-4.60
2013,12,05,05,51,-4.60
2013,12,05,05,52,-4.60
2013,12,05,05,53,-4.60
2013,12,05,05,54,-4.60
2013,12,05,05,55,-4.60
2013,12,05,05,56,-4.60
2013,12,05,05,57,-4.60
2013,12,05,05,58,-4.60
2013,12,05,05,59,-4.60
2013,12,05,06,00,-4.60
2013,12,05,06,01,-4.60
2013,12,05,06,02,-4.60
2013,12,05,06,03,-4.60
2013,12,05,06,04,-4.50
2013,12,05,06,05,-4.50
2013,12,05,06,06,-4.50
2013,12,05,06,07,-4.50
2013,12,05,06,08,-4.50
2013,12,05,06,09,-4.50
2013,12,05,06,10,-4.50
2013,12,05,06,11,-4.50
2013,12,05,06,12,-4.50
2013,12,05,06,13,-4.50
2013,12,05,06,14,-4.50
2013,12,05,06,15,-4.50
2013,12,05,06,16,-4.50
2013,12,05,06,17,-4.50
2013,12,05,06,18,-4.50
2013,12,05,06,19,-4.50
2013,12,05,06,20,-4.40
2013,12,05,06,21,-4.40
2013,12,05,06,22,-4.40
2013,12,05,06,23,-4.40
2013,12,05,06,24,-4.40
2013,12,05,06,25,-4.40
2013,12,05,06,26,-4.40
2013,12,05,06,27,-4.40
2013,12,05,06,28,-4.40
2013,12,05,06,29,-4.40
2013,12,05,06,30,-4.40
2013,12,05,06,31,-4.40
2013,12,05,06,32,-4.40
2013,12,05,06,33,-4.40
2013,12,05,06,34,-4.30
2013,12,05,06,35,-4.30
2013,12,05,06,36,-4.30
2013,12,05,06,37,-4.30
2013,12,05,06,38,-4.30
2013,12,05,06,39,-4.30
2013,12,05,06,40,-4.20
2013,12,05,06,41,-4.20
2013,12,05,06,42,-4.20
2013,12,05,06,43,-4.20
2013,12,05,06,44,-4.20
2013,12,05,06,45,-4.20
2013,12,05,06,46,-4.20
2013,12,05,06,47,-4.20
2013,12,05,06,48,-4.20
2013,12,05,06,49,-4.20
2013,12,05,06,50,-4.20
2013,12,05,06,51,-4.20
2013,12,05,06,52,-4.20
2013,12,05,06,53,-4.20
2013,12,05,06,54,-4.20
2013,12,05,06,55,-4.10
2013,12,05,06,56,-4.10
2013,12,05,06,57,-4.10
2013,12,05,06,58,-4.10
2013,12,05,06,59,-4.10
2013,12,05,07,00,-4.10
2013,12,05,07,01,-4.10
2013,12,05,07,02,-4.10
2013,12,05,07,03,-4.10
2013,12,05,07,04,-4.10
2013,12,05,07,05,-4.10
2013,12,05,07,06,-4.10
2013,12,05,07,07,-4.00
2013,12,05,07,08,-4.00
2013,12,05,07,09,-4.00
2013,12,05,07,10,-4.00
2013,12,05,07,11,-4.00
2013,12,05,07,12,-4.00
2013,12,05,07,13,-4.00
2013,12,05,07,14,-4.00
2013,12,05,07,15,-4.00
2013,12,05,07,16,-4.00
2013,12,05,07,17,-4.00
2013,12,05,07,18,-4.00
2013,12,05,07,19,-4.00
2013,12,05,07,20,-4.00
2013,12,05,07,21,-4.00
2013,12,05,07,22,-3.90
2013,12,05,07,23,-3.90
2013,12,05,07,24,-3.90
2013,12,05,07,25,-3.90
2013,12,05,07,26,-3.90
2013,12,05,07,27,-3.90
2013,12,05,07,28,-3.90
2013,12,05,07,29,-3.90
2013,12,05,07,30,-3.90
2013,12,05,07,31,-3.90
2013,12,05,07,32,-3.90
2013,12,05,07,33,-3.90
2013,12,05,07,34,-3.90
2013,12,05,07,35,-3.90
2013,12,05,07,36,-3.90
2013,12,05,07,37,-3.90
2013,12,05,07,38,-3.80
2013,12,05,07,39,-3.80
2013,12,05,07,40,-3.80
2013,12,05,07,41,-3.80
2013,12,05,07,42,-3.80
2013,12,05,07,43,-3.80
2013,12,05,07,44,-3.80
2013,12,05,07,45,-3.80
2013,12,05,07,46,-3.80
2013,12,05,07,47,-3.80
2013,12,05,07,48,-3.80
2013,12,05,07,49,-3.80
2013,12,05,07,50,-3.80
2013,12,05,07,51,-3.80
2013,12,05,07,52,-3.80
2013,12,05,07,53,-3.80
2013,12,05,07,54,-3.80
2013,12,05,07,55,-3.80
2013,12,05,07,56,-3.70
2013,12,05,07,57,-3.70
2013,12,05,07,58,-3.70
2013,12,05,07,59,-3.70
2013,12,05,08,00,-3.80
2013,12,05,08,01,-3.80
2013,12,05,08,02,-3.80
2013,12,05,08,03,-3.80
2013,12,05,08,04,-3.80
2013,12,05,08,05,-3.80
2013,12,05,08,06,-3.80
2013,12,05,08,07,-3.80
2013,12,05,08,08,-3.80
2013,12,05,08,09,-3.70
2013,12,05,08,10,-3.70
2013,12,05,08,11,-3.70
2013,12,05,08,12,-3.70
2013,12,05,08,13,-3.70
2013,12,05,08,14,-3.70
2013,12,05,08,15,-3.70
2013,12,05,08,16,-3.70
2013,12,05,08,17,-3.70
2013,12,05,08,18,-3.70
2013,12,05,08,19,-3.60
2013,12,05,08,20,-3.60
2013,12,05,08,21,-3.60
2013,12,05,08,22,-3.60
2013,12,05,08,23,-3.60
2013,12,05,08,24,-3.60
2013,12,05,08,25,-3.60
2013,12,05,08,26,-3.50
2013,12,05,08,27,-3.50
2013,12,05,08,28,-3.50
2013,12,05,08,29,-3.40
2013,12,05,08,30,-3.40
2013,12,05,08,31,-3.30
2013,12,05,08,32,-3.30
2013,12,05,08,33,-3.30
2013,12,05,08,34,-3.30
2013,12,05,08,35,-3.20
2013,12,05,08,36,-3.20
2013,12,05,08,37,-3.20
2013,12,05,08,38,-3.20
2013,12,05,08,39,-3.20
2013,12,05,08,40,-3.20
2013,12,05,08,41,-3.20
2013,12,05,08,42,-3.20
2013,12,05,08,43,-3.20
2013,12,05,08,44,-3.20
2013,12,05,08,45,-3.20
2013,12,05,08,46,-3.20
2013,12,05,08,47,-3.20
2013,12,05,08,48,-3.20
2013,12,05,08,49,-3.20
2013,12,05,08,50,-3.20
2013,12,05,08,51,-3.20
2013,12,05,08,52,-3.20
2013,12,05,08,53,-3.20
2013,12,05,08,54,-3.20
2013,12,05,08,55,-3.20
2013,12,05,08,56,-3.20
2013,12,05,08,57,-3.20
2013,12,05,08,58,-3.20
2013,12,05,08,59,-3.20
2013,12,05,09,00,-3.20
2013,12,05,09,01,-3.20
2013,12,05,09,02,-3.20
2013,12,05,09,03,-3.20
2013,12,05,09,04,-3.20
2013,12,05,09,05,-3.10
2013,12,05,09,06,-3.10
2013,12,05,09,07,-3.10
2013,12,05,09,08,-3.10
2013,12,05,09,09,-3.10
2013,12,05,09,10,-3.20
2013,12,05,09,11,-3.20
2013,12,05,09,12,-3.20
2013,12,05,09,13,-3.20
2013,12,05,09,14,-3.20
2013,12,05,09,15,-3.30
2013,12,05,09,16,-3.30
2013,12,05,09,17,-3.30
2013,12,05,09,18,-3.30
2013,12,05,09,19,-3.30
2013,12,05,09,20,-3.30
2013,12,05,09,21,-3.30
2013,12,05,09,22,-3.30
2013,12,05,09,23,-3.40
2013,12,05,09,24,-3.30
2013,12,05,09,25,-3.30
2013,12,05,09,26,-3.30
2013,12,05,09,27,-3.30
2013,12,05,09,28,-3.30
2013,12,05,09,29,-3.40
2013,12,05,09,30,-3.40
2013,12,05,09,31,-3.40
2013,12,05,09,32,-3.40
2013,12,05,09,33,-3.40
2013,12,05,09,34,-3.40
2013,12,05,09,35,-3.30
2013,12,05,09,36,-3.30
2013,12,05,09,37,-3.30
2013,12,05,09,38,-3.30
2013,12,05,09,39,-3.30
2013,12,05,09,40,-3.30
2013,12,05,09,41,-3.30
2013,12,05,09,42,-3.30
2013,12,05,09,43,-3.30
2013,12,05,09,44,-3.30
2013,12,05,09,45,-3.30
2013,12,05,09,46,-3.30
2013,12,05,09,47,-3.30
2013,12,05,09,48,-3.30
2013,12,05,09,49,-3.30
2013,12,05,09,50,-3.30
2013,12,05,09,51,-3.30
2013,12,05,09,52,-3.30
2013,12,05,09,53,-3.30
2013,12,05,09,54,-3.30
2013,12,05,09,55,-3.30
2013,12,05,09,56,-3.30
2013,12,05,09,57,-3.30
2013,12,05,09,58,-3.30
2013,12,05,09,59,-3.30
2013,12,05,10,00,-3.30
2013,12,05,10,01,-3.20
2013,12,05,10,02,-3.20
2013,12,05,10,03,-3.20
2013,12,05,10,04,-3.20
2013,12,05,10,05,-3.20
2013,12,05,10,06,-3.20
2013,12,05,10,07,-3.10
2013,12,05,10,08,-3.10
2013,12,05,10,09,-3.10
2013,12,05,10,10,-3.10
2013,12,05,10,11,-3.00
2013,12,05,10,12,-3.10
2013,12,05,10,13,-3.10
2013,12,05,10,14,-3.10
2013,12,05,10,15,-3.10
2013,12,05,10,16,-3.10
2013,12,05,10,17,-3.20
2013,12,05,10,18,-3.20
2013,12,05,10,19,-3.20
2013,12,05,10,20,-3.20
2013,12,05,10,21,-3.10
2013,12,05,10,22,-3.10
2013,12,05,10,23,-3.10
2013,12,05,10,24,-3.10
2013,12,05,10,25,-3.10
2013,12,05,10,26,-3.10
2013,12,05,10,27,-3.10
2013,12,05,10,28,-3.10
2013,12,05,10,29,-3.10
2013,12,05,10,30,-3.10
2013,12,05,10,31,-3.10
2013,12,05,10,32,-3.10
2013,12,05,10,33,-3.10
2013,12,05,10,34,-3.10
2013,12,05,10,35,-3.10
2013,12,05,10,36,-3.10
2013,12,05,10,37,-3.10
2013,12,05,10,38,-3.10
2013,12,05,10,39,-3.10
2013,12,05,10,40,-3.00
2013,12,05,10,41,-3.00
2013,12,05,10,42,-3.00
2013,12,05,10,43,-3.00
2013,12,05,10,44,-3.00
2013,12,05,10,45,-3.00
2013,12,05,10,46,-2.90
2013,12,05,10,47,-2.90
2013,12,05,10,48,-2.90
2013,12,05,10,49,-2.90
2013,12,05,10,50,-2.90
2013,12,05,10,51,-2.80
2013,12,05,10,52,-2.80
2013,12,05,10,53,-2.80
2013,12,05,10,54,-2.80
2013,12,05,10,55,-2.70
2013,12,05,10,56,-2.80
2013,12,05,10,57,-2.80
2013,12,05,10,58,-2.80
2013,12,05,10,59,-2.80
2013,12,05,11,00,-2.80
2013,12,05,11,01,-2.80
2013,12,05,11,02,-2.80
2013,12,05,11,03,-2.80
2013,12,05,11,04,-2.80
2013,12,05,11,05,-2.90
2013,12,05,11,06,-2.90
2013,12,05,11,07,-2.90
2013,12,05,11,08,-2.90
2013,12,05,11,09,-2.90
2013,12,05,11,10,-2.90
2013,12,05,11,11,-2.90
2013,12,05,11,12,-2.90
2013,12,05,11,13,-2.90
2013,12,05,11,14,-2.80
2013,12,05,11,15,-2.80
2013,12,05,11,16,-2.80
2013,12,05,11,17,-2.80
2013,12,05,11,18,-2.80
2013,12,05,11,19,-2.80
2013,12,05,11,20,-2.80
2013,12,05,11,21,-2.80
2013,12,05,11,22,-2.80
2013,12,05,11,23,-2.80
2013,12,05,11,24,-2.80
2013,12,05,11,25,-2.80
2013,12,05,11,26,-2.80
2013,12,05,11,27,-2.80
2013,12,05,11,28,-2.70
2013,12,05,11,29,-2.70
2013,12,05,11,30,-2.70
2013,12,05,11,31,-2.70
2013,12,05,11,32,-2.70
2013,12,05,11,33,-2.70
2013,12,05,11,34,-2.70
2013,12,05,11,35,-2.80
2013,12,05,11,36,-2.80
2013,12,05,11,37,-2.80
2013,12,05,11,38,-2.70
2013,12,05,11,39,-2.70
2013,12,05,11,40,-2.70
2013,12,05,11,41,-2.80
2013,12,05,11,42,-2.80
2013,12,05,11,43,-2.80
2013,12,05,11,44,-2.80
2013,12,05,11,45,-2.80
2013,12,05,11,46,-2.90
2013,12,05,11,47,-2.90
2013,12,05,11,48,-2.90
2013,12,05,11,49,-2.90
2013,12,05,11,50,-2.90
2013,12,05,11,51,-2.90
2013,12,05,11,52,-2.90
2013,12,05,11,53,-2.90
2013,12,05,11,54,-2.90
2013,12,05,11,55,-2.90
2013,12,05,11,56,-2.90
2013,12,05,11,57,-2.80
2013,12,05,11,58,-2.80
2013,12,05,11,59,-2.80
2013,12,05,12,00,-2.80
2013,12,05,12,01,-2.80
2013,12,05,12,02,-2.80
2013,12,05,12,03,-2.80
2013,12,05,12,04,-2.80
2013,12,05,12,05,-2.80
2013,12,05,12,06,-2.80
2013,12,05,12,07,-2.70
2013,12,05,12,08,-2.70
2013,12,05,12,09,-2.70
2013,12,05,12,10,-2.70
2013,12,05,12,11,-2.70
2013,12,05,12,12,-2.70
2013,12,05,12,13,-2.70
2013,12,05,12,14,-2.70
2013,12,05,12,15,-2.70
2013,12,05,12,16,-2.70
2013,12,05,12,17,-2.70
2013,12,05,12,18,-2.80
2013,12,05,12,19,-2.80
2013,12,05,12,20,-2.80
2013,12,05,12,21,-2.80
2013,12,05,12,22,-2.80
2013,12,05,12,23,-2.80
2013,12,05,12,24,-2.80
2013,12,05,12,25,-2.70
2013,12,05,12,26,-2.70
2013,12,05,12,27,-2.70
2013,12,05,12,28,-2.70
2013,12,05,12,29,-2.70
2013,12,05,12,30,-2.70
2013,12,05,12,31,-2.70
2013,12,05,12,32,-2.70
2013,12,05,12,33,-2.70
2013,12,05,12,34,-2.70
2013,12,05,12,35,-2.70
2013,12,05,12,36,-2.70
2013,12,05,12,37,-2.70
2013,12,05,12,38,-2.70
2013,12,05,12,39,-2.70
2013,12,05,12,40,-2.70
2013,12,05,12,41,-2.70
2013,12,05,12,42,-2.70
2013,12,05,12,43,-2.70
2013,12,05,12,44,-2.70
2013,12,05,12,45,-2.70
2013,12,05,12,46,-2.70
2013,12,05,12,47,-2.60
2013,12,05,12,48,-2.60
2013,12,05,12,49,-2.60
2013,12,05,12,50,-2.60
2013,12,05,12,51,-2.50
2013,12,05,12,52,-2.50
2013,12,05,12,53,-2.50
2013,12,05,12,54,-2.50
2013,12,05,12,55,-2.50
2013,12,05,12,56,-2.50
2013,12,05,12,57,-2.50
2013,12,05,12,58,-2.50
2013,12,05,12,59,-2.50
2013,12,05,13,00,-2.50
2013,12,05,13,01,-2.50
2013,12,05,13,02,-2.50
2013,12,05,13,03,-2.50
2013,12,05,13,04,-2.50
2013,12,05,13,05,-2.60
2013,12,05,13,06,-2.60
2013,12,05,13,07,-2.60
2013,12,05,13,08,-2.60
2013,12,05,13,09,-2.50
2013,12,05,13,10,-2.50
2013,12,05,13,11,-2.50
2013,12,05,13,12,-2.50
2013,12,05,13,13,-2.50
2013,12,05,13,14,-2.40
2013,12,05,13,15,-2.40
2013,12,05,13,16,-2.40
2013,12,05,13,17,-2.40
2013,12,05,13,18,-2.30
2013,12,05,13,19,-2.30
2013,12,05,13,20,-2.30
2013,12,05,13,21,-2.30
2013,12,05,13,22,-2.30
2013,12,05,13,23,-2.30
2013,12,05,13,24,-2.30
2013,12,05,13,25,-2.30
2013,12,05,13,26,-2.30
2013,12,05,13,27,-2.30
2013,12,05,13,28,-2.30
2013,12,05,13,29,-2.30
2013,12,05,13,30,-2.30
2013,12,05,13,31,-2.30
2013,12,05,13,32,-2.30
2013,12,05,13,33,-2.30
2013,12,05,13,34,-2.30
2013,12,05,13,35,-2.30
2013,12,05,13,36,-2.30
2013,12,05,13,37,-2.30
2013,12,05,13,38,-2.30
2013,12,05,13,39,-2.30
2013,12,05,13,40,-2.30
2013,12,05,13,41,-2.30
2013,12,05,13,42,-2.30
2013,12,05,13,43,-2.30
2013,12,05,13,44,-2.30
2013,12,05,13,45,-2.30
2013,12,05,13,46,-2.30
2013,12,05,13,47,-2.30
2013,12,05,13,48,-2.30
2013,12,05,13,49,-2.30
2013,12,05,13,50,-2.30
2013,12,05,13,51,-2.30
2013,12,05,13,52,-2.30
2013,12,05,13,53,-2.30
2013,12,05,13,54,-2.20
2013,12,05,13,55,-2.20
2013,12,05,13,56,-2.20
2013,12,05,13,57,-2.20
2013,12,05,13,58,-2.20
2013,12,05,13,59,-2.20
2013,12,05,14,00,-2.20
2013,12,05,14,01,-2.20
2013,12,05,14,02,-2.20
2013,12,05,14,03,-2.20
2013,12,05,14,04,-2.20
2013,12,05,14,05,-2.20
2013,12,05,14,06,-2.20
2013,12,05,14,07,-2.10
2013,12,05,14,08,-2.10
2013,12,05,14,09,-2.10
2013,12,05,14,10,-2.10
2013,12,05,14,11,-2.10
2013,12,05,14,12,-2.10
2013,12,05,14,13,-2.10
2013,12,05,14,14,-2.20
2013,12,05,14,15,-2.10
2013,12,05,14,16,-2.10
2013,12,05,14,17,-2.10
2013,12,05,14,18,-2.10
2013,12,05,14,19,-2.10
2013,12,05,14,20,-2.10
2013,12,05,14,21,-2.10
2013,12,05,14,22,-2.00
2013,12,05,14,23,-2.10
2013,12,05,14,24,-2.10
2013,12,05,14,25,-2.10
2013,12,05,14,26,-2.10
2013,12,05,14,27,-2.10
2013,12,05,14,28,-2.10
2013,12,05,14,29,-2.10
2013,12,05,14,30,-2.10
2013,12,05,14,31,-2.10
2013,12,05,14,32,-2.00
2013,12,05,14,33,-2.00
2013,12,05,14,34,-2.00
2013,12,05,14,35,-2.00
2013,12,05,14,36,-2.00
2013,12,05,14,37,-2.00
2013,12,05,14,38,-2.00
2013,12,05,14,39,-2.00
2013,12,05,14,40,-2.00
2013,12,05,14,41,-2.00
2013,12,05,14,42,-2.00
2013,12,05,14,43,-2.10
2013,12,05,14,44,-2.10
2013,12,05,14,45,-2.10
2013,12,05,14,46,-2.10
2013,12,05,14,47,-2.10
2013,12,05,14,48,-2.00
2013,12,05,14,49,-2.00
2013,12,05,14,50,-2.00
2013,12,05,14,51,-2.00
2013,12,05,14,52,-2.00
2013,12,05,14,53,-2.00
2013,12,05,14,54,-1.90
2013,12,05,14,55,-1.90
2013,12,05,14,56,-1.90
2013,12,05,14,57,-1.90
2013,12,05,14,58,-1.90
2013,12,05,14,59,-1.90
2013,12,05,15,00,-1.90
2013,12,05,15,01,-1.90
2013,12,05,15,02,-1.90
2013,12,05,15,03,-1.90
2013,12,05,15,04,-1.90
2013,12,05,15,05,-1.90
2013,12,05,15,06,-1.90
2013,12,05,15,07,-1.90
2013,12,05,15,08,-1.90
2013,12,05,15,09,-1.90
2013,12,05,15,10,-2.00
2013,12,05,15,11,-2.00
2013,12,05,15,12,-2.00
2013,12,05,15,13,-2.00
2013,12,05,15,14,-2.00
2013,12,05,15,15,-2.10
2013,12,05,15,16,-2.10
2013,12,05,15,17,-2.10
2013,12,05,15,18,-2.10
2013,12,05,15,19,-2.10
2013,12,05,15,20,-2.10
2013,12,05,15,21,-2.00
2013,12,05,15,22,-2.00
2013,12,05,15,23,-2.00
2013,12,05,15,24,-2.00
2013,12,05,15,25,-2.00
2013,12,05,15,26,-2.00
2013,12,05,15,27,-2.00
2013,12,05,15,28,-2.00
2013,12,05,15,29,-2.00
2013,12,05,15,30,-2.00
2013,12,05,15,31,-2.00
2013,12,05,15,32,-2.00
2013,12,05,15,33,-1.90
2013,12,05,15,34,-1.90
2013,12,05,15,35,-1.90
2013,12,05,15,36,-1.90
2013,12,05,15,37,-1.90
2013,12,05,15,38,-1.90
2013,12,05,15,39,-1.90
2013,12,05,15,40,-1.90
2013,12,05,15,41,-1.90
2013,12,05,15,42,-1.90
2013,12,05,15,43,-2.00
2013,12,05,15,44,-2.00
2013,12,05,15,45,-2.00
2013,12,05,15,46,-2.00
2013,12,05,15,47,-2.10
2013,12,05,15,48,-2.10
2013,12,05,15,49,-2.10
2013,12,05,15,50,-2.10
2013,12,05,15,51,-2.10
2013,12,05,15,52,-2.10
2013,12,05,15,53,-2.10
2013,12,05,15,54,-2.10
2013,12,05,15,55,-2.10
2013,12,05,15,56,-2.10
2013,12,05,15,57,-2.10
2013,12,05,15,58,-2.10
2013,12,05,15,59,-2.10
2013,12,05,16,00,-2.10
2013,12,05,16,01,-2.10
2013,12,05,16,02,-2.10
2013,12,05,16,03,-2.10
2013,12,05,16,04,-2.10
2013,12,05,16,05,-2.10
2013,12,05,16,06,-2.10
2013,12,05,16,07,-2.10
2013,12,05,16,08,-2.20
2013,12,05,16,09,-2.20
2013,12,05,16,10,-2.20
2013,12,05,16,11,-2.20
2013,12,05,16,12,-2.20
2013,12,05,16,13,-2.20
2013,12,05,16,14,-2.20
2013,12,05,16,15,-2.20
2013,12,05,16,16,-2.20
2013,12,05,16,17,-2.20
2013,12,05,16,18,-2.20
2013,12,05,16,19,-2.20
2013,12,05,16,20,-2.20
2013,12,05,16,21,-2.20
2013,12,05,16,22,-2.20
2013,12,05,16,23,-2.20
2013,12,05,16,24,-2.20
2013,12,05,16,25,-2.20
2013,12,05,16,26,-2.20
2013,12,05,16,27,-2.20
2013,12,05,16,28,-2.20
2013,12,05,16,29,-2.20
2013,12,05,16,30,-2.20
2013,12,05,16,31,-2.20
2013,12,05,16,32,-2.20
2013,12,05,16,33,-2.30
2013,12,05,16,34,-2.30
2013,12,05,16,35,-2.30
2013,12,05,16,36,-2.30
2013,12,05,16,37,-2.30
2013,12,05,16,38,-2.30
2013,12,05,16,39,-2.30
2013,12,05,16,40,-2.30
2013,12,05,16,41,-2.30
2013,12,05,16,42,-2.30
2013,12,05,16,43,-2.30
2013,12,05,16,44,-2.30
2013,12,05,16,45,-2.30
2013,12,05,16,46,-2.30
2013,12,05,16,47,-2.30
2013,12,05,16,48,-2.40
2013,12,05,16,49,-2.40
2013,12,05,16,50,-2.40
2013,12,05,16,51,-2.40
2013,12,05,16,52,-2.40
2013,12,05,16,53,-2.40
2013,12,05,16,54,-2.40
2013,12,05,16,55,-2.40
2013,12,05,16,56,-2.40
2013,12,05,16,57,-2.40
2013,12,05,16,58,-2.40
2013,12,05,16,59,-2.40
2013,12,05,17,00,-2.40
2013,12,05,17,01,-2.50
2013,12,05,17,02,-2.50
2013,12,05,17,03,-2.50
2013,12,05,17,04,-2.50
2013,12,05,17,05,-2.50
2013,12,05,17,06,-2.50
2013,12,05,17,07,-2.50
2013,12,05,17,08,-2.50
2013,12,05,17,09,-2.50
2013,12,05,17,10,-2.50
2013,12,05,17,11,-2.50
2013,12,05,17,12,-2.50
2013,12,05,17,13,-2.50
2013,12,05,17,14,-2.50
2013,12,05,17,15,-2.50
2013,12,05,17,16,-2.50
2013,12,05,17,17,-2.50
2013,12,05,17,18,-2.50
2013,12,05,17,19,-2.40